This demonstration page uses our WeatherBlox Daily Observations layout. Learn more.

Left ArrowRight Arrow

Hourly Observations for September 27, 2015

Temp ( °F °C ) Dew Point ( °F °C ) Humidity (%) Winds ( mph kmh ) Pressure ( in mb ) Visibility ( mi km ) Precip ( " mm )
12:15 am 00:15 Cloudy 63 17 57 14 83 83 NE 5 7 30.42 1030 10 16 0.00 0.00
12:35 am 00:35 Cloudy 63 17 57 14 83 83 NE 6 9 30.42 1030 10 16 0.00 0.00
12:55 am 00:55 Partly Cloudy 63 17 57 14 83 83 NNE 6 9 30.42 1030 10 16 0.00 0.00
1:15 am 01:15 Partly Cloudy 63 17 57 14 83 83 NNE 7 11 30.39 1029 10 16 0.00 0.00
1:35 am 01:35 Clear 61 16 55 13 83 83 NNE 6 9 30.39 1029 10 16 0.00 0.00
1:55 am 01:55 Clear 61 16 55 13 83 83 NNE 6 9 30.39 1029 10 16 0.00 0.00
2:15 am 02:15 Clear 61 16 55 13 83 83 NNE 7 11 30.39 1029 10 16 0.00 0.00
2:35 am 02:35 Partly Cloudy 61 16 55 13 83 83 NNE 6 9 30.39 1029 10 16 0.00 0.00
2:55 am 02:55 Mostly Cloudy 61 16 55 13 83 83 NNE 5 7 30.39 1029 10 16 0.00 0.00
3:15 am 03:15 Mostly Cloudy 61 16 55 13 83 83 N 3 6 30.39 1029 10 16 0.00 0.00
3:35 am 03:35 Cloudy 61 16 55 13 83 83 N 6 9 30.39 1029 10 16 0.00 0.00
3:55 am 03:55 Cloudy 61 16 55 13 83 83 N 5 7 30.39 1029 10 16 0.00 0.00
4:15 am 04:15 Partly Cloudy 61 16 55 13 83 83 NNE 6 9 30.39 1029 10 16 0.00 0.00
4:35 am 04:35 Partly Cloudy 61 16 55 13 83 83 NNE 7 11 30.39 1029 10 16 0.00 0.00
4:55 am 04:55 Mostly Cloudy 59 15 55 13 88 88 NNE 7 11 30.36 1028 10 16 0.00 0.00
5:15 am 05:15 Mostly Cloudy 59 15 55 13 88 88 NNE 7 11 30.36 1028 10 16 0.00 0.00
5:35 am 05:35 Mostly Cloudy 59 15 55 13 88 88 NNE 7 11 30.36 1028 10 16 0.00 0.00
5:55 am 05:55 Cloudy 59 15 55 13 88 88 NNE 3 6 30.39 1029 10 16 0.00 0.00
6:15 am 06:15 Cloudy with Light Rain 59 15 57 14 94 94 NNE 8 13 30.36 1028 10 16 0.00 0.00
6:35 am 06:35 Cloudy 59 15 57 14 94 94 NNE 6 9 30.36 1028 10 16 0.00 0.00
6:55 am 06:55 Cloudy 59 15 57 14 94 94 NNE 6 9 30.36 1028 10 16 0.00 0.00
7:15 am 07:15 Cloudy 59 15 57 14 94 94 NNE 6 9 30.39 1029 10 16 0.00 0.00
7:35 am 07:35 Cloudy 59 15 57 14 94 94 NNE 6 9 30.39 1029 10 16 0.00 0.00
7:55 am 07:55 Cloudy 59 15 57 14 94 94 N 3 6 30.39 1029 10 16 0.00 0.00
8:15 am 08:15 Cloudy 59 15 57 14 94 94 NNE 5 7 30.39 1029 10 16 0.00 0.00
8:35 am 08:35 Cloudy 59 15 57 14 94 94 NNE 6 9 30.39 1029 10 16 0.00 0.00
8:55 am 08:55 Cloudy 61 16 57 14 88 88 NNE 6 9 30.39 1029 10 16 0.00 0.00
9:15 am 09:15 Cloudy 61 16 57 14 88 88 NNE 5 7 30.39 1029 10 16 0.00 0.00
9:35 am 09:35 Cloudy 63 17 59 15 88 88 NNE 5 7 30.39 1029 10 16 0.00 0.00
9:55 am 09:55 Cloudy 63 17 59 15 88 88 NE 5 7 30.39 1029 10 16 0.00 0.00
10:15 am 10:15 Cloudy 64 18 59 15 83 83 NNE 5 7 30.39 1029 10 16 0.00 0.00
10:35 am 10:35 Cloudy 66 19 59 15 78 78 NE 8 13 30.39 1029 10 16 0.00 0.00
10:55 am 10:55 Cloudy 68 20 61 16 78 78 NNE 7 11 30.39 1029 10 16 0.00 0.00
11:15 am 11:15 Cloudy 68 20 61 16 78 78 NE 5 7 30.39 1029 10 16 0.00 0.00
11:35 am 11:35 Cloudy 70 21 61 16 73 73 E 5 7 30.39 1029 10 16 0.00 0.00
11:55 am 11:55 Cloudy 70 21 61 16 73 73 NE 7 11 30.36 1028 10 16 0.00 0.00
12:15 pm 12:15 Cloudy 72 22 61 16 69 69 Calm 30.36 1028 10 16 0.00 0.00
12:35 pm 12:35 Cloudy 72 22 61 16 69 69 S 5 7 30.36 1028 10 16 0.00 0.00
12:55 pm 12:55 Cloudy 72 22 61 16 69 69 SSE 7 11 30.36 1028 10 16 0.00 0.00
1:15 pm 13:15 Cloudy 72 22 63 17 73 73 ESE 8 13 30.36 1028 10 16 0.00 0.00
1:35 pm 13:35 Cloudy 72 22 61 16 69 69 ESE 7 11 30.33 1027 10 16 0.00 0.00
1:55 pm 13:55 Cloudy 73 23 63 17 69 69 E 7 11 30.33 1027 10 16 0.00 0.00
2:15 pm 14:15 Cloudy 72 22 63 17 73 73 ESE 9 15 30.33 1027 10 16 0.00 0.00
2:35 pm 14:35 Cloudy 72 22 63 17 73 73 ENE 5 7 30.30 1026 10 16 0.00 0.00
2:55 pm 14:55 Cloudy 72 22 63 17 73 73 E 8 13 30.30 1026 10 16 0.00 0.00
3:15 pm 15:15 Cloudy 72 22 63 17 73 73 SSE 6 9 30.30 1026 10 16 0.00 0.00
3:35 pm 15:35 Cloudy 72 22 63 17 73 73 S 6 9 30.30 1026 10 16 0.00 0.00
3:55 pm 15:55 Cloudy 72 22 63 17 73 73 ENE 6 9 30.30 1026 10 16 0.00 0.00
4:15 pm 16:15 Cloudy 72 22 63 17 73 73 S 5 7 30.30 1026 10 16 0.00 0.00
4:35 pm 16:35 Cloudy 72 22 63 17 73 73 ENE 5 7 30.30 1026 10 16 0.00 0.00
4:55 pm 16:55 Cloudy 72 22 63 17 73 73 ENE 5 7 30.27 1025 10 16 0.00 0.00
5:15 pm 17:15 Cloudy 72 22 63 17 73 73 E 6 9 30.27 1025 10 16 0.00 0.00
5:35 pm 17:35 Cloudy 72 22 63 17 73 73 ESE 3 6 30.27 1025 10 16 0.00 0.00
5:55 pm 17:55 Cloudy 72 22 63 17 73 73 NE 5 7 30.27 1025 10 16 0.00 0.00
6:15 pm 18:15 Cloudy 72 22 64 18 78 78 ENE 3 6 30.27 1025 10 16 0.00 0.00
6:35 pm 18:35 Cloudy 72 22 64 18 78 78 ENE 5 7 30.27 1025 10 16 0.00 0.00
6:55 pm 18:55 Cloudy 72 22 64 18 78 78 NE 5 7 30.27 1025 10 16 0.00 0.00
7:15 pm 19:15 Cloudy 70 21 64 18 83 83 ENE 5 7 30.27 1025 10 16 0.00 0.00
7:35 pm 19:35 Cloudy 70 21 64 18 83 83 E 3 6 30.27 1025 10 16 0.00 0.00
7:55 pm 19:55 Cloudy 70 21 64 18 83 83 ENE 5 7 30.27 1025 10 16 0.00 0.00
8:15 pm 20:15 Cloudy 70 21 64 18 83 83 ENE 3 6 30.30 1026 10 16 0.00 0.00
8:35 pm 20:35 Cloudy 70 21 64 18 83 83 ENE 5 7 30.27 1025 10 16 0.00 0.00
8:55 pm 20:55 Mostly Cloudy 68 20 64 18 88 88 NW 3 6 30.30 1026 10 16 0.00 0.00
9:15 pm 21:15 Cloudy 68 20 64 18 88 88 NW 3 6 30.30 1026 10 16 0.00 0.00
9:35 pm 21:35 Cloudy 68 20 64 18 88 88 NNW 5 7 30.30 1026 10 16 0.00 0.00
9:55 pm 21:55 Mostly Cloudy 68 20 64 18 88 88 NNW 3 6 30.30 1026 10 16 0.00 0.00
10:15 pm 22:15 Cloudy 68 20 64 18 88 88 N 5 7 30.30 1026 10 16 0.00 0.00
10:35 pm 22:35 Cloudy 68 20 64 18 88 88 NNW 5 7 30.27 1025 10 16 0.00 0.00
10:55 pm 22:55 Cloudy 68 20 64 18 88 88 NW 5 7 30.27 1025 10 16 0.00 0.00
11:15 pm 23:15 Cloudy 68 20 64 18 88 88 NW 3 6 30.27 1025 10 16 0.00 0.00
11:35 pm 23:35 Cloudy 68 20 64 18 88 88 N 5 7 30.30 1026 10 16 0.00 0.00
11:55 pm 23:55 Cloudy 68 20 64 18 88 88 NNE 5 7 30.27 1025 10 16 0.00 0.00

Powered by AerisWeather